[[{"header":{"parameterUnit":"m.s-1","parameterCategory":1,"la1":30.2991,"la2":30.254,"lo1":-89.0895,"lo2":-89.0444,"dy":0.0017,"dx":0.0017,"nx":28,"ny":28,"refTime":"2024-05-16T03:00:00:Z","depth":0,"parameterNumber":2,"parameterNumberName":"U-component_of_WINDS"},"data":[0,0,0,0,0,0,0,0,0,0,0,0,0,0,0,0,0,0,0,0,0,0,0,0,0,0,0,0,0,0,0,0,0,0,0,0,0,0,0,0,0,0,0,0,0,0,0,0,0,0,0,0,0,0,0,0,0,0,-1.3334,-1.3335,0,-1.3416,-1.3417,-1.3418,-1.3468,-1.3469,-1.3469,-1.3469,-1.3555,-1.3557,-1.3559,0,0,0,0,0,0,0,0,0,0,0,0,0,-1.3223,-1.3225,-1.3334,-1.3335,-1.3336,-1.3416,-1.3417,-1.3418,-1.3468,-1.3469,-1.3469,-1.3469,-1.3554,-1.3557,-1.3559,0,0,0,0,0,0,0,0,0,0,0,0,0,-1.3285,-1.3226,-1.3334,-1.3371,-1.3375,-1.3416,-1.3417,-1.3419,-1.3468,-1.3469,-1.3469,-1.3469,-1.3553,-1.3556,-1.3559,-1.3571,0,0,-1.3569,-1.357,0,0,0,0,0,0,0,0,-1.3282,-1.3289,-1.3364,-1.3368,-1.3373,-1.3432,-1.341,-1.347,-1.3468,-1.3433,-1.3469,-1.347,-1.3514,-1.352,-1.3535,-1.3575,-1.3579,-1.3569,-1.3571,-1.3572,-1.3573,0,0,0,0,0,0,0,-1.3277,-1.3286,-1.3367,-1.3365,-1.3371,-1.3384,-1.3393,-1.3421,-1.347,-1.3436,-1.344,-1.3449,-1.3516,-1.3532,-1.3537,-1.358,-1.3569,-1.3572,-1.3574,-1.3575,-1.3634,-1.3634,0,0,0,0,0,0,-1.3267,-1.3282,-1.3364,-1.3369,-1.3327,-1.3386,-1.3396,-1.3413,-1.347,-1.3479,-1.3448,-1.3451,-1.3526,-1.3534,-1.3541,-1.3558,-1.3572,-1.3575,-1.3577,-1.3635,-1.3634,-1.3634,0,0,0,0,0,0,-1.3264,-1.3274,-1.3361,-1.3327,-1.3339,-1.3387,-1.3406,-1.3414,-1.343,-1.348,-1.3489,-1.3455,-1.3527,-1.3536,-1.3563,-1.3562,-1.3577,-1.3579,-1.3635,-1.3635,-1.3634,-1.3593,0,0,0,0,0,0,-1.3261,-1.3272,-1.3277,-1.3326,-1.334,-1.3381,-1.3406,-1.3416,-1.3435,-1.3439,-1.3488,-1.3497,-1.3528,-1.3558,-1.3566,-1.3566,-1.3582,-1.3635,-1.3635,-1.3634,-1.3594,-1.3591,-1.3588,0,0,0,0,0,-1.3257,-1.3262,-1.3277,-1.3286,-1.3347,-1.3381,-1.3389,-1.3424,-1.3434,-1.344,-1.3472,-1.3495,-1.3561,-1.3561,-1.357,-1.3571,-1.3636,-1.3635,-1.3634,-1.3596,-1.3591,-1.3588,0,0,0,0,0,0,-1.3211,-1.3269,-1.3286,-1.3307,-1.3339,-1.3389,-1.3397,-1.3419,-1.3448,-1.3451,-1.3494,-1.3505,-1.3528,-1.3552,-1.3551,-1.3585,-1.3601,-1.3602,-1.3568,-1.3565,-1.3561,-1.3555,-1.3584,0,0,0,0,0,-1.3204,-1.3226,-1.3276,-1.329,-1.3305,-1.3348,-1.3364,-1.3389,-1.3423,-1.3437,-1.3471,-1.3504,-1.3533,-1.355,-1.3579,-1.3598,-1.361,-1.3604,-1.3601,-1.3598,-1.3598,-1.3611,-1.3608,-1.3632,-1.3632,-1.3632,0,0,-1.3188,-1.3223,-1.3234,-1.3282,-1.3309,-1.3332,-1.3359,-1.3382,-1.3399,-1.3441,-1.3468,-1.3494,-1.3534,-1.3557,-1.3569,-1.3579,-1.3594,-1.3597,-1.3594,-1.3596,-1.361,-1.3607,-1.3605,-1.3632,-1.3632,-1.3632,0,0,-1.3172,-1.32,-1.3215,-1.3242,-1.3282,-1.3311,-1.3315,-1.3362,-1.3381,-1.3409,-1.344,-1.3463,-1.351,-1.3537,-1.3557,-1.3552,-1.3575,-1.356,-1.3543,-1.3555,-1.3553,-1.3552,-1.3549,-1.3548,-1.3561,-1.3561,-1.3561,0,-1.3148,-1.3182,-1.322,-1.3241,-1.3261,-1.3299,-1.3315,-1.334,-1.3388,-1.3401,-1.3411,-1.3471,-1.3501,-1.3531,-1.353,-1.3545,-1.3551,-1.3555,-1.355,-1.3549,-1.3548,-1.3547,-1.3546,-1.3559,-1.3559,-1.3559,-1.3559,0,-1.3151,-1.3175,-1.3182,-1.3227,-1.3248,-1.3266,-1.3307,-1.3324,-1.3347,-1.3375,-1.3404,-1.3441,-1.3478,-1.3487,-1.351,-1.3521,-1.3525,-1.3542,-1.3558,-1.3543,-1.3543,-1.3542,-1.3556,-1.3556,-1.3557,-1.3558,0,0,-1.3107,-1.3173,-1.3175,-1.3196,-1.3244,-1.3263,-1.3284,-1.332,-1.3333,-1.3366,-1.3384,-1.3424,-1.344,-1.3463,-1.3489,-1.3499,-1.3493,-1.3515,-1.3517,-1.3509,-1.3507,-1.3494,-1.3492,-1.3509,-1.3509,-1.3509,-1.3504,0,-1.3098,-1.3135,-1.317,-1.3195,-1.3218,-1.3255,-1.3273,-1.3305,-1.3332,-1.3356,-1.3386,-1.3414,-1.3433,-1.3447,-1.3458,-1.3491,-1.3493,-1.3492,-1.3527,-1.3527,-1.3514,-1.3492,-1.3478,-1.3471,-1.3504,-1.3504,-1.3504,0,-1.3091,-1.3121,-1.3148,-1.3194,-1.3205,-1.3221,-1.3256,-1.3279,-1.3316,-1.3335,-1.336,-1.3388,-1.3413,-1.3427,-1.3461,-1.346,-1.3476,-1.3495,-1.3495,-1.3499,-1.3514,-1.3495,-1.347,-1.3469,-1.3504,-1.3504,-1.3504,0,-1.3056,-1.3103,-1.3126,-1.3143,-1.3197,-1.3207,-1.3231,-1.3268,-1.3288,-1.3319,-1.3332,-1.3366,-1.3385,-1.3411,-1.3448,-1.3455,-1.3478,-1.3496,-1.3495,-1.3494,-1.3498,-1.3497,-1.3474,-1.3509,-1.3509,-1.3509,-1.3509,0,-1.3041,-1.3056,-1.3111,-1.3125,-1.3143,-1.3183,-1.3201,-1.3228,-1.3261,-1.3281,-1.3316,-1.3335,-1.3382,-1.3407,-1.3436,-1.346,-1.3468,-1.3485,-1.3492,-1.3481,-1.3479,-1.3492,-1.3493,-1.3509,-1.3509,-1.3509,-1.3509,0,-1.3005,-1.3042,-1.3069,-1.3118,-1.3131,-1.3142,-1.3185,-1.3201,-1.323,-1.3255,-1.3263,-1.3309,-1.334,-1.3379,-1.3423,-1.3442,-1.3463,-1.3475,-1.345,-1.3454,-1.3451,-1.345,-1.3436,-1.3436,-1.347,-1.347,-1.347,0,-1.2992,-1.3005,-1.3056,-1.3071,-1.3093,-1.3118,-1.3138,-1.3179,-1.3198,-1.3242,-1.3252,-1.3285,-1.3313,-1.3361,-1.3399,-1.3432,-1.3445,-1.3437,-1.345,-1.3439,-1.3444,-1.3443,-1.3444,-1.3434,-1.3433,-1.3433,-1.3432,0,-1.2967,-1.2984,-1.3011,-1.3044,-1.3067,-1.3095,-1.3125,-1.3136,-1.3183,-1.3204,-1.3235,-1.3257,-1.3301,-1.3334,-1.3372,-1.3397,-1.3422,-1.3428,-1.343,-1.3418,-1.3403,-1.3411,-1.344,-1.3428,-1.3428,-1.3429,-1.3429,-1.3429,-1.2942,-1.2955,-1.2992,-1.3021,-1.3048,-1.3075,-1.3092,-1.3123,-1.3149,-1.3188,-1.3211,-1.3241,-1.3279,-1.3333,-1.3357,-1.3382,-1.3392,-1.3394,-1.3395,-1.3395,-1.3391,-1.3399,-1.339,-1.339,-1.339,-1.339,-1.339,0,-1.2917,-1.2943,-1.2969,-1.301,-1.3033,-1.3055,-1.3089,-1.3107,-1.3133,-1.3166,-1.3193,-1.3229,-1.3261,-1.3302,-1.3337,-1.3349,-1.3362,-1.3357,-1.3356,-1.3361,-1.3381,-1.3375,-1.3346,-1.3346,-1.3346,-1.3346,-1.3346,-1.3346,-1.2907,-1.293,-1.2952,-1.2989,-1.3016,-1.3045,-1.3063,-1.3089,-1.3115,-1.3154,-1.318,-1.3206,-1.3242,-1.328,-1.3311,-1.3322,-1.3333,-1.3325,-1.3339,-1.3356,-1.336,-1.3364,-1.3359,-1.3327,-1.3327,-1.3318,-1.3318,-1.3318]},{"header":{"parameterUnit":"m.s-1","parameterCategory":1,"la1":30.2991,"la2":30.254,"lo1":-89.0895,"lo2":-89.0444,"dy":0.0017,"dx":0.0017,"nx":28,"ny":28,"refTime":"2024-05-16T03:00:00:Z","depth":0,"parameterNumber":3,"parameterNumberName":"V-component_of_WINDS"},"data":[0,0,0,0,0,0,0,0,0,0,0,0,0,0,0,0,0,0,0,0,0,0,0,0,0,0,0,0,0,0,0,0,0,0,0,0,0,0,0,0,0,0,0,0,0,0,0,0,0,0,0,0,0,0,0,0,0,0,6.1246,6.1245,0,6.118,6.1179,6.1178,6.1058,6.1056,6.1053,6.1051,6.0986,6.0986,6.0987,0,0,0,0,0,0,0,0,0,0,0,0,0,6.127,6.127,6.1246,6.1245,6.1244,6.118,6.1179,6.1178,6.1058,6.1056,6.1053,6.105,6.0986,6.0986,6.0987,0,0,0,0,0,0,0,0,0,0,0,0,0,6.1238,6.127,6.1246,6.1177,6.117,6.118,6.1179,6.1178,6.1059,6.1055,6.1052,6.1049,6.0986,6.0986,6.0987,6.106,0,0,6.0989,6.0989,0,0,0,0,0,0,0,0,6.124,6.1237,6.1188,6.1181,6.1174,6.1123,6.1164,6.1139,6.106,6.1101,6.1051,6.1047,6.1035,6.1031,6.1026,6.1057,6.1055,6.0989,6.0989,6.099,6.099,0,0,0,0,0,0,0,6.1242,6.1239,6.122,6.1187,6.1179,6.1149,6.1141,6.1158,6.1088,6.1097,6.1088,6.1082,6.103,6.1026,6.1024,6.1054,6.0989,6.099,6.099,6.099,6.1141,6.1145,0,0,0,0,0,0,6.1254,6.1242,6.1222,6.1218,6.1199,6.1152,6.1142,6.1143,6.1088,6.1076,6.1085,6.1077,6.1027,6.1023,6.1021,6.1103,6.099,6.099,6.0991,6.1138,6.1142,6.1146,0,0,0,0,0,0,6.1255,6.1253,6.1224,6.1227,6.1221,6.1155,6.1157,6.1144,6.1139,6.1078,6.1066,6.1094,6.1024,6.102,6.1051,6.1099,6.0991,6.0991,6.1133,6.1139,6.1144,6.1269,0,0,0,0,0,0,6.1256,6.1255,6.1281,6.1229,6.1222,6.1256,6.116,6.1145,6.114,6.1129,6.1083,6.1072,6.1021,6.1051,6.1052,6.1098,6.0992,6.1129,6.1136,6.1142,6.126,6.1278,6.1293,0,0,0,0,0,6.1258,6.132,6.1283,6.1282,6.1254,6.1258,6.1254,6.1193,6.1145,6.1171,6.1132,6.1074,6.1094,6.1055,6.1055,6.1103,6.1125,6.1134,6.1142,6.1253,6.1274,6.1293,0,0,0,0,0,0,6.138,6.1311,6.127,6.1317,6.1295,6.1238,6.127,6.1218,6.121,6.1199,6.1125,6.1115,6.1156,6.1132,6.109,6.1171,6.11,6.1109,6.1185,6.1205,6.1221,6.1226,6.0992,0,0,0,0,0,6.1413,6.1422,6.1361,6.1408,6.1399,6.1337,6.1337,6.1292,6.1265,6.1255,6.1218,6.1196,6.1197,6.12,6.1197,6.1256,6.1244,6.1288,6.1305,6.1319,6.1327,6.1356,6.1375,6.1173,6.1173,6.1173,0,0,6.148,6.1443,6.1454,6.1432,6.1409,6.1421,6.133,6.1346,6.1354,6.1258,6.1285,6.1257,6.1227,6.1272,6.129,6.1254,6.138,6.1329,6.1341,6.1341,6.1367,6.1386,6.1403,6.1178,6.1177,6.1176,0,0,6.1608,6.1582,6.1618,6.1597,6.1563,6.1521,6.153,6.1481,6.1459,6.1484,6.1413,6.1422,6.1425,6.1407,6.1398,6.152,6.1465,6.1521,6.1607,6.1636,6.1652,6.1666,6.1709,6.1726,6.153,6.153,6.153,0,6.1697,6.171,6.1643,6.1664,6.1656,6.157,6.1606,6.1589,6.1557,6.1554,6.1513,6.1516,6.149,6.1529,6.1559,6.1554,6.1563,6.1526,6.1655,6.1668,6.168,6.1721,6.1737,6.1537,6.1536,6.1535,6.1535,0,6.182,6.1831,6.1865,6.1835,6.1831,6.186,6.1798,6.1802,6.1758,6.1721,6.1748,6.1713,6.1702,6.1708,6.1665,6.1742,6.172,6.1669,6.1597,6.1708,6.1745,6.176,6.1547,6.1544,6.1542,6.1541,0,0,6.2024,6.1957,6.197,6.1956,6.1912,6.1919,6.1944,6.1933,6.1938,6.1919,6.1939,6.1944,6.1895,6.1885,6.184,6.1865,6.1964,6.181,6.1808,6.184,6.2046,6.2085,6.2105,6.1927,6.193,6.1932,6.2049,0,6.2143,6.2181,6.2121,6.2173,6.2183,6.21,6.2122,6.2098,6.2064,6.2068,6.203,6.2035,6.1971,6.1964,6.1986,6.1947,6.2004,6.1938,6.1945,6.1946,6.1955,6.2124,6.2165,6.2277,6.2063,6.2065,6.2067,0,6.2287,6.2274,6.2327,6.228,6.2282,6.2302,6.2287,6.2291,6.2263,6.2236,6.2225,6.217,6.2192,6.2122,6.2151,6.2108,6.2107,6.2089,6.2091,6.209,6.2013,6.2127,6.2311,6.2328,6.2089,6.2087,6.2085,0,6.2431,6.2427,6.2457,6.2448,6.2394,6.241,6.2389,6.2356,6.2353,6.234,6.2338,6.2328,6.2323,6.2316,6.2261,6.2215,6.2296,6.2222,6.2275,6.2277,6.2296,6.2296,6.2483,6.2296,6.2296,6.2296,6.2295,0,6.257,6.2606,6.2521,6.254,6.2578,6.2509,6.2549,6.2519,6.2491,6.2503,6.2431,6.2445,6.237,6.2375,6.2332,6.2363,6.2361,6.234,6.2328,6.2347,6.2349,6.2345,6.2336,6.23,6.2299,6.2298,6.2297,0,6.2737,6.2682,6.271,6.2656,6.2644,6.2674,6.2628,6.2644,6.2605,6.2622,6.2622,6.2561,6.2564,6.2507,6.2499,6.2469,6.2519,6.2494,6.2529,6.2521,6.2577,6.2573,6.2768,6.279,6.259,6.2592,6.2594,0,6.2829,6.2854,6.2803,6.2806,6.2788,6.2793,6.279,6.2723,6.2723,6.2692,6.2712,6.2708,6.2702,6.271,6.2665,6.2658,6.2632,6.2701,6.263,6.2648,6.2633,6.2632,6.2634,6.2716,6.2718,6.272,6.2722,0,6.2999,6.2971,6.2968,6.2956,6.2953,6.2941,6.2924,6.293,6.2858,6.2861,6.2862,6.2857,6.2848,6.2845,6.283,6.2808,6.2754,6.2745,6.2756,6.2776,6.2795,6.2785,6.257,6.274,6.2739,6.2737,6.2736,6.2735,6.3131,6.315,6.3117,6.3116,6.3096,6.3082,6.3094,6.3057,6.3056,6.3043,6.3004,6.3012,6.2983,6.2957,6.294,6.2945,6.2911,6.2929,6.2933,6.2938,6.2949,6.2794,6.2942,6.2942,6.2941,6.294,6.294,0,6.3298,6.3272,6.3272,6.325,6.325,6.3198,6.3176,6.318,6.3187,6.3164,6.3159,6.3161,6.3158,6.3114,6.3106,6.3119,6.3094,6.3119,6.3117,6.3113,6.298,6.297,6.3139,6.3139,6.3139,6.3139,6.3139,6.3139,6.3384,6.3413,6.3381,6.3399,6.3373,6.338,6.3372,6.3359,6.334,6.3345,6.3342,6.3313,6.3281,6.327,6.3265,6.3252,6.3253,6.3287,6.3266,6.3142,6.3123,6.3104,6.3095,6.3287,6.3288,6.3398,6.3399,6.34]}]]